TimeCST,TemperatureF,Dew PointF,Humidity,Sea Level PressureIn,VisibilityMPH,Wind Direction,Wind SpeedMPH,Gust SpeedMPH,PrecipitationIn,Events,Conditions,WindDirDegrees,DateUTC
12:30 AM,10.4,8.6,92,29.81,1.8,Calm,Calm,-,N/A,,Clear,0,2013-02-13 06:30:00
12:41 AM,10.4,6.8,85,29.81,4.0,Calm,Calm,-,N/A,,Clear,0,2013-02-13 06:41:00
12:56 AM,11.1,9.1,92,29.84,6.0,Calm,Calm,-,N/A,,Clear,0,2013-02-13 06:56:00
1:56 AM,18.1,16.2,92,29.82,7.0,Calm,Calm,-,N/A,,Clear,0,2013-02-13 07:56:00
2:56 AM,13.1,10.0,88,29.82,4.0,Calm,Calm,-,N/A,,Clear,0,2013-02-13 08:56:00
3:56 AM,10.0,7.2,88,29.80,8.0,Calm,Calm,-,N/A,,Clear,0,2013-02-13 09:56:00
4:56 AM,9.1,6.1,87,29.78,7.0,Calm,Calm,-,N/A,,Clear,0,2013-02-13 10:56:00
5:56 AM,8.6,5.0,85,29.74,8.0,Calm,Calm,-,N/A,,Clear,0,2013-02-13 11:56:00
6:56 AM,10.0,7.2,88,29.78,8.0,Calm,Calm,-,N/A,,Mostly Cloudy,0,2013-02-13 12:56:00
7:56 AM,14.0,12.0,92,29.76,5.0,Calm,Calm,-,N/A,,Mostly Cloudy,0,2013-02-13 13:56:00
8:56 AM,20.1,18.1,92,29.75,5.0,Calm,Calm,-,N/A,,Mostly Cloudy,0,2013-02-13 14:56:00
9:56 AM,24.1,23.0,96,29.75,7.0,Calm,Calm,-,N/A,,Mostly Cloudy,0,2013-02-13 15:56:00
10:56 AM,29.1,22.1,75,29.74,10.0,Calm,Calm,-,N/A,,Mostly Cloudy,0,2013-02-13 16:56:00
11:56 AM,32.0,21.0,64,29.72,10.0,Calm,Calm,-,N/A,,Overcast,0,2013-02-13 17:56:00
12:56 PM,34.0,22.1,62,29.70,10.0,Calm,Calm,-,N/A,,Mostly Cloudy,0,2013-02-13 18:56:00
1:56 PM,36.9,24.1,60,29.69,10.0,Calm,Calm,-,N/A,,Overcast,0,2013-02-13 19:56:00
2:56 PM,37.9,23.0,55,29.70,10.0,Calm,Calm,-,N/A,,Overcast,0,2013-02-13 20:56:00
3:56 PM,36.9,24.1,60,29.70,10.0,Calm,Calm,-,N/A,,Overcast,0,2013-02-13 21:56:00
4:56 PM,36.0,25.2,65,29.70,10.0,Calm,Calm,-,N/A,,Mostly Cloudy,0,2013-02-13 22:56:00
5:56 PM,33.8,24.8,70,29.68,10.0,Calm,Calm,-,N/A,,Overcast,0,2013-02-13 23:56:00
6:56 PM,34.0,24.1,67,29.71,10.0,Calm,Calm,-,N/A,,Mostly Cloudy,0,2013-02-14 00:56:00
7:56 PM,31.1,24.1,75,29.70,10.0,Calm,Calm,-,N/A,,Overcast,0,2013-02-14 01:56:00
8:56 PM,30.2,24.8,80,29.67,10.0,Calm,Calm,-,N/A,,Overcast,0,2013-02-14 02:56:00
9:56 PM,32.0,25.2,76,29.68,10.0,Calm,Calm,-,N/A,,Overcast,0,2013-02-14 03:56:00
10:56 PM,32.0,25.2,76,29.67,10.0,Calm,Calm,-,N/A,,Overcast,0,2013-02-14 04:56:00
11:56 PM,30.2,24.8,80,29.63,10.0,Calm,Calm,-,N/A,,Overcast,0,2013-02-14 05:56:00